Location: ?????
(37.7324°N, 23.9257°E)
Time: 08:10:48
(UTC+00:00)

CZ-4B R/B - Pass Details

Date: 29 November 2020
Orbit: 390 x 458 km, 97.6° (Epoch: 17 January)

Event Time Altitude Azimuth Distance (km) Brightness Sun altitude
Rises 03:57:56 0° 194° (SSW) 2,329 5.0 -15.8°
Reaches altitude 10° 04:00:14 10° 211° (SSW) 1,461 3.8 -15.3°
Enters shadow 04:01:20 16° 228° (SW) 1,141 3.1 -15.1°
